レモン彗星

P/2017 TW13 ( Lemmon )

English version
Home page
Updated on March 5, 2020

---------------------------------------------------------------------

・ プロフィール

発見日 2017年9月1日
発見光度 20.2等
発見者 J. A. Johnson (Mount Lemmon)

・ 写真集

・ 軌道要素

Epoch 2018 June 11.0 TT = JDT 2458280.5                                         
T 2018 June 20.98524 TT                                 Williams                
q   2.0788040            (2000.0)            P               Q                  
n   0.05142321     Peri.  120.10953     -0.02146136     -0.90190030             
a   7.1619276      Node   322.27637     +0.48415903     +0.36816043             
e   0.7097424      Incl.   44.83670     +0.87471678     -0.22590650             
P  19.2                                                                         
From 188 observations 2017 Aug. 31-2019 July 6, mean residual 0".3.             

・ 光度変化

        m1 = 11.5 + 5 logΔ + 12.5 log r

---------------------------------------------------------------------

軌道要素はM.P.E.C. 2019-T169に掲載されたものです。
光度グラフはComet for Windowsで作成したものです。

---------------------------------------------------------------------

Copyright(C) Seiichi Yoshida (comet@aerith.net). All rights reserved.